| time (UTC) | temp C | wind direction | speed KPH | gust KPH | rain 1hr cm | rain 24hr cm | rain mn cm | humidity % | barometer mb |
| 20260507230122 | 12 | 307 | 11.3 | 20.9 | 0.00 | 0.00 | 0.00 | 43 | 878.0 |
| 20260507220153 | 12 | 304 | 8.0 | 22.5 | 0.00 | 0.00 | 0.00 | 46 | 878.3 |
| 20260507210127 | 11 | 280 | 9.7 | 17.7 | 0.00 | 0.00 | 0.00 | 48 | 878.4 |
| 20260507200212 | 10 | 265 | 8.0 | 16.1 | 0.00 | 0.00 | 0.00 | 55 | 878.5 |
| 20260507190122 | 10 | 247 | 4.8 | 14.5 | 0.00 | 0.00 | 0.00 | 64 | 878.2 |
| 20260507180126 | 8 | 240 | 8.0 | 16.1 | 0.00 | 0.00 | 0.00 | 70 | 878.1 |
| 20260507170118 | 6 | 273 | 6.4 | 16.1 | 0.00 | 0.00 | 0.00 | 75 | 877.9 |
| 20260507160121 | 5 | 257 | 6.4 | 22.5 | 0.00 | 0.00 | 0.00 | 79 | 877.6 |
| 20260507150116 | 4 | 261 | 9.7 | 22.5 | 0.00 | 0.00 | 0.00 | 82 | 877.1 |
| 20260507140125 | 4 | 273 | 12.9 | 25.7 | 0.00 | 0.00 | 0.00 | 82 | 876.7 |
| 20260507120110 | 3 | 271 | 8.0 | 22.5 | 0.00 | 0.00 | 0.00 | 86 | 876.3 |
| 20260507110106 | 3 | 291 | 8.0 | 22.5 | 0.00 | 0.00 | 0.00 | 84 | 876.6 |
| 20260507100124 | 5 | 305 | 9.7 | 27.4 | 0.00 | 0.00 | 0.00 | 76 | 876.9 |
| 20260507090116 | 5 | 301 | 6.4 | 25.7 | 0.00 | 0.00 | 0.00 | 75 | 877.1 |
| 20260507080105 | 6 | 227 | 9.7 | 19.3 | 0.00 | 0.00 | 0.00 | 73 | 877.2 |
| 20260507070135 | 6 | 256 | 3.2 | 17.7 | 0.00 | 0.00 | 0.00 | 71 | 877.5 |
| 20260507050149 | 8 | 277 | 11.3 | 22.5 | 0.00 | 0.00 | 0.00 | 68 | 878.0 |
| 20260507040128 | 9 | 284 | 9.7 | 30.6 | 0.00 | 0.00 | 0.00 | 65 | 878.1 |
| 20260507030148 | 10 | 230 | 9.7 | 24.1 | 0.00 | 0.00 | 0.00 | 64 | 877.7 |
| 20260507020111 | 11 | 280 | 11.3 | 27.4 | 0.00 | 0.00 | 0.00 | 60 | 877.8 |
| 20260507010148 | 13 | 249 | 9.7 | 30.6 | 0.00 | 0.00 | 0.00 | 54 | 878.0 |
| 20260507000144 | 13 | 278 | 14.5 | 27.4 | 0.00 | 0.00 | 0.00 | 53 | 878.1 |